Home   Weather   Launceston   Past weeks

Flag for Australia Past Weather in Launceston, Tasmania, Australia — Yesterday and Last 2 Weeks

Now
61 °F

Scattered clouds.


Feels Like: 61 °F
Forecast: 42 / 59 °F
Wind: 15 mph from North

Location: Launceston Airport

Current Time: Sep 27, 2016 at 3:29:42 PM

Latest Report: Sep 27, 2016 at 3:00 PM


Visibility: N/A

Pressure: 29.71 "Hg

Humidity: 55%

Dew Point: 45 °F

Location of LauncestonLocation

Past Weather in Launceston — Graph

°F

Launceston Temperature Yesterday

Maximum temperature yesterday: 57 °F (at 1:00 PM)
Minimum temperature yesterday: 37 °F (at 1:30 AM)
Average temperature yesterday: 47 °F

High & Low Weather Summary for the Past Weeks

 TemperatureHumidityPressure
High63 °F (Sep 22, 12:30 PM)100% (Sep 13, 4:30 AM)30.27 "Hg (Sep 13, 4:30 AM)
Low36 °F (Sep 20, 5:00 AM)31% (Sep 25, 4:00 PM)29.53 "Hg (Sep 15, 10:00 AM)
Average49 °F80%29.87 "Hg
* Reported Sep 12 2:00 PM — Sep 27 2:00 PM, Launceston, Weather by CustomWeather, © 2016

Note: Actual official high and low records may vary slightly from our data, if they occured in-between our weather recording intervals... More about our weather records

Advertising

Launceston Weather History for the Previous 24 Hours

Scroll right to see more
 ConditionsComfort  
Time TempWeatherWind HumidityBarometerVisibility
2:00 PM
Tue, Sep 27
61 °FPartly sunny.16 mph55%29.74 "HgN/A
1:30 PM59 °FPartly sunny.8 mph51%29.74 "HgN/A
1:00 PM59 °FScattered clouds.9 mph55%29.74 "HgN/A
12:30 PM57 °FScattered clouds.6 mph55%29.74 "HgN/A
12:00 PM55 °FScattered clouds.8 mph59%29.74 "HgN/A
11:30 AM55 °FPartly sunny.6 mph63%29.77 "HgN/A
11:00 AM55 °FPartly sunny.8 mph63%29.77 "HgN/A
10:30 AM54 °FPartly sunny.6 mph67%29.77 "HgN/A
10:00 AM52 °FOvercast.3 mph72%29.77 "HgN/A
9:30 AM52 °FSunny.3 mph77%29.77 "HgN/A
9:00 AM48 °FSunny.3 mph76%29.77 "HgN/A
8:30 AM45 °FScattered clouds.3 mph87%29.77 "HgN/A
8:00 AM43 °FSunny.6 mph93%29.77 "HgN/A
7:30 AM41 °FPartly sunny.5 mph93%29.77 "HgN/A
7:00 AM41 °FPartly sunny.3 mph93%29.77 "HgN/A
6:54 AM39 °FPartly sunny.5 mph100%29.77 "HgN/A
6:30 AM37 °FPartly sunny.No wind93%29.77 "HgN/A
6:00 AM36 °FScattered clouds.6 mph93%29.77 "Hg2 mi
5:00 AM37 °FClear.3 mph93%29.74 "HgN/A
4:02 AM39 °FPassing clouds.No wind93%29.74 "Hg4 mi
3:00 AM39 °FClear.6 mph93%29.74 "Hg6 mi
2:00 AM39 °FClear.No wind93%29.77 "HgN/A
1:30 AM39 °FClear.No wind93%29.77 "HgN/A
1:00 AM41 °FClear.No wind93%29.77 "HgN/A
12:00 AM43 °FClear.5 mph87%29.77 "HgN/A
11:30 PM
Mon, Sep 26
41 °FClear.5 mph93%29.80 "HgN/A
11:00 PM43 °FClear.3 mph93%29.80 "HgN/A
10:00 PM41 °FClear.7 mph87%29.80 "HgN/A
9:00 PM45 °FClear.5 mph87%29.80 "HgN/A
8:00 PM43 °FClear.7 mph87%29.80 "HgN/A
7:30 PM46 °FPassing clouds.7 mph82%29.80 "HgN/A
7:00 PM48 °FPassing clouds.10 mph82%29.80 "HgN/A
6:30 PM48 °FPassing clouds.13 mph76%29.80 "HgN/A
6:00 PM50 °FSunny.15 mph71%29.77 "HgN/A
5:30 PM50 °FSunny.13 mph71%29.77 "HgN/A
5:00 PM52 °FBroken clouds.15 mph72%29.77 "HgN/A
4:30 PM54 °FSunny.17 mph67%29.77 "HgN/A
4:00 PM55 °FScattered clouds.17 mph63%29.74 "HgN/A
3:30 PM57 °FScattered clouds.15 mph55%29.74 "HgN/A
3:00 PM57 °FSunny.14 mph51%29.74 "HgN/A
Weather by CustomWeather, © 2016

See weather overviewHow to use our weather pages